Time,TemperatureF,DewpointF,PressureIn,WindDirection,WindDirectionDegrees,WindSpeedMPH,WindSpeedGustMPH,Humidity,HourlyPrecipIn,Conditions,Clouds,dailyrainin,SoftwareType,DateUTC
2013-09-27 00:02:00,72.7,61.9,29.82,SSE,149,4.0,4.0,69,0.00,,,0.00,LWC2 V0.39 B123,2013-09-27 06:02:00,
2013-09-27 00:07:00,72.6,61.8,29.82,ESE,115,4.0,5.0,69,0.00,,,0.00,LWC2 V0.39 B123,2013-09-27 06:07:00,
2013-09-27 00:12:00,72.6,61.8,29.82,SSE,156,3.0,4.0,69,0.00,,,0.00,LWC2 V0.39 B123,2013-09-27 06:12:00,
2013-09-27 00:17:00,72.5,61.7,29.82,ESE,113,4.0,4.0,69,0.00,,,0.00,LWC2 V0.39 B123,2013-09-27 06:17:00,
2013-09-27 00:22:00,72.4,61.6,29.82,ESE,117,5.0,7.0,69,0.00,,,0.00,LWC2 V0.39 B123,2013-09-27 06:22:00,
2013-09-27 00:27:00,72.4,61.6,29.82,East,100,2.0,3.0,69,0.00,,,0.00,LWC2 V0.39 B123,2013-09-27 06:27:00,
2013-09-27 00:32:00,72.2,61.4,29.83,SE,125,2.0,4.0,69,0.00,,,0.00,LWC2 V0.39 B123,2013-09-27 06:32:00,
2013-09-27 00:37:00,72.0,61.7,29.83,ESE,107,5.0,5.0,70,0.00,,,0.00,LWC2 V0.39 B123,2013-09-27 06:37:00,
2013-09-27 00:42:00,72.0,61.7,29.83,SSE,152,3.0,4.0,70,0.00,,,0.00,LWC2 V0.39 B123,2013-09-27 06:42:00,
2013-09-27 00:47:00,71.8,61.5,29.83,SE,125,1.0,4.0,70,0.00,,,0.00,LWC2 V0.39 B123,2013-09-27 06:47:00,
2013-09-27 00:52:00,71.6,61.3,29.83,SE,141,1.0,2.0,70,0.00,,,0.00,LWC2 V0.39 B123,2013-09-27 06:52:00,
2013-09-27 00:57:00,71.4,61.5,29.83,SE,129,2.0,3.0,71,0.00,,,0.00,LWC2 V0.39 B123,2013-09-27 06:57:00,
2013-09-27 01:02:00,71.3,61.4,29.83,SE,137,1.0,3.0,71,0.00,,,0.00,LWC2 V0.39 B123,2013-09-27 07:02:00,
2013-09-27 01:07:00,71.1,61.2,29.83,ESE,114,1.0,2.0,71,0.00,,,0.00,LWC2 V0.39 B123,2013-09-27 07:07:00,
2013-09-27 01:12:00,70.9,61.0,29.84,ESE,118,2.0,3.0,71,0.00,,,0.00,LWC2 V0.39 B123,2013-09-27 07:12:00,
2013-09-27 01:17:00,70.8,61.3,29.83,SSW,205,2.0,4.0,72,0.00,,,0.00,LWC2 V0.39 B123,2013-09-27 07:17:00,
2013-09-27 01:22:00,70.7,61.2,29.83,ESE,119,2.0,3.0,72,0.00,,,0.00,LWC2 V0.39 B123,2013-09-27 07:22:00,
2013-09-27 01:27:00,70.5,61.0,29.83,SE,135,1.0,5.0,72,0.00,,,0.00,LWC2 V0.39 B123,2013-09-27 07:27:00,
2013-09-27 01:32:00,70.5,61.0,29.84,SE,128,3.0,5.0,72,0.00,,,0.00,LWC2 V0.39 B123,2013-09-27 07:32:00,
2013-09-27 01:37:00,70.5,61.0,29.83,ESE,110,1.0,2.0,72,0.00,,,0.00,LWC2 V0.39 B123,2013-09-27 07:37:00,
2013-09-27 01:42:00,70.4,60.9,29.84,East,86,2.0,4.0,72,0.00,,,0.00,LWC2 V0.39 B123,2013-09-27 07:42:00,
2013-09-27 01:47:00,70.4,60.9,29.84,SE,141,2.0,4.0,72,0.00,,,0.00,LWC2 V0.39 B123,2013-09-27 07:47:00,
2013-09-27 01:52:00,70.4,60.9,29.84,South,173,3.0,3.0,72,0.00,,,0.00,LWC2 V0.39 B123,2013-09-27 07:52:00,
2013-09-27 01:53:00,70.4,60.9,29.84,SSW,204,4.0,4.0,72,0.00,,,0.00,LWC2 V0.39 B123,2013-09-27 07:53:00,
2013-09-27 01:58:00,70.5,61.0,29.84,South,184,3.0,5.0,72,0.00,,,0.00,LWC2 V0.39 B123,2013-09-27 07:58:00,
2013-09-27 02:03:00,70.7,60.8,29.84,South,191,1.0,4.0,71,0.00,,,0.00,LWC2 V0.39 B123,2013-09-27 08:03:00,
2013-09-27 02:08:00,71.0,61.1,29.84,SE,142,3.0,8.0,71,0.00,,,0.00,LWC2 V0.39 B123,2013-09-27 08:08:00,
2013-09-27 02:13:00,71.2,61.3,29.84,SSE,167,3.0,7.0,71,0.00,,,0.00,LWC2 V0.39 B123,2013-09-27 08:13:00,
2013-09-27 02:18:00,71.5,61.2,29.84,SW,225,5.0,5.0,70,0.00,,,0.00,LWC2 V0.39 B123,2013-09-27 08:18:00,
2013-09-27 02:23:00,71.6,61.3,29.84,SSE,159,2.0,5.0,70,0.00,,,0.00,LWC2 V0.39 B123,2013-09-27 08:23:00,
2013-09-27 02:28:00,71.5,61.2,29.84,South,174,2.0,5.0,70,0.00,,,0.00,LWC2 V0.39 B123,2013-09-27 08:28:00,
2013-09-27 02:33:00,71.6,61.3,29.84,South,178,2.0,8.0,70,0.00,,,0.00,LWC2 V0.39 B123,2013-09-27 08:33:00,
2013-09-27 02:38:00,71.6,61.3,29.84,SSW,203,3.0,7.0,70,0.00,,,0.00,LWC2 V0.39 B123,2013-09-27 08:38:00,
2013-09-27 02:43:00,71.6,61.3,29.84,South,191,3.0,5.0,70,0.00,,,0.00,LWC2 V0.39 B123,2013-09-27 08:43:00,
2013-09-27 02:48:00,71.4,61.1,29.84,SE,139,2.0,4.0,70,0.00,,,0.00,LWC2 V0.39 B123,2013-09-27 08:48:00,
2013-09-27 02:53:00,71.4,61.1,29.84,South,183,4.0,7.0,70,0.00,,,0.00,LWC2 V0.39 B123,2013-09-27 08:53:00,
2013-09-27 02:58:00,71.3,61.4,29.84,SE,136,6.0,6.0,71,0.00,,,0.00,LWC2 V0.39 B123,2013-09-27 08:58:00,
2013-09-27 03:03:00,71.2,61.3,29.84,SE,128,2.0,4.0,71,0.00,,,0.00,LWC2 V0.39 B123,2013-09-27 09:03:00,
2013-09-27 03:08:00,71.1,61.2,29.84,SW,229,4.0,4.0,71,0.00,,,0.00,LWC2 V0.39 B123,2013-09-27 09:08:00,
2013-09-27 03:13:00,71.0,61.1,29.84,SE,145,3.0,7.0,71,0.00,,,0.00,LWC2 V0.39 B123,2013-09-27 09:13:00,
2013-09-27 03:18:00,70.8,61.3,29.84,SE,132,4.0,5.0,72,0.00,,,0.00,LWC2 V0.39 B123,2013-09-27 09:18:00,
2013-09-27 03:23:00,70.6,61.1,29.84,SE,145,3.0,5.0,72,0.00,,,0.00,LWC2 V0.39 B123,2013-09-27 09:23:00,
2013-09-27 03:28:00,70.4,61.3,29.84,SE,143,3.0,5.0,73,0.00,,,0.00,LWC2 V0.39 B123,2013-09-27 09:28:00,
2013-09-27 03:33:00,70.1,61.4,29.84,South,169,4.0,4.0,74,0.00,,,0.00,LWC2 V0.39 B123,2013-09-27 09:33:00,
2013-09-27 03:38:00,69.9,61.2,29.84,SE,129,3.0,4.0,74,0.00,,,0.00,LWC2 V0.39 B123,2013-09-27 09:38:00,
2013-09-27 03:43:00,69.6,61.3,29.84,SSE,159,3.0,4.0,75,0.00,,,0.00,LWC2 V0.39 B123,2013-09-27 09:43:00,
2013-09-27 03:48:00,69.4,61.5,29.84,SE,134,3.0,5.0,76,0.00,,,0.00,LWC2 V0.39 B123,2013-09-27 09:48:00,
2013-09-27 03:53:00,69.1,61.2,29.84,ESE,115,1.0,4.0,76,0.00,,,0.00,LWC2 V0.39 B123,2013-09-27 09:53:00,
2013-09-27 03:58:00,68.9,61.4,29.84,ESE,113,3.0,4.0,77,0.00,,,0.00,LWC2 V0.39 B123,2013-09-27 09:58:00,
2013-09-27 04:03:00,68.7,61.2,29.84,East,91,2.0,3.0,77,0.00,,,0.00,LWC2 V0.39 B123,2013-09-27 10:03:00,
2013-09-27 04:08:00,68.4,61.3,29.85,ESE,114,3.0,4.0,78,0.00,,,0.00,LWC2 V0.39 B123,2013-09-27 10:08:00,
2013-09-27 04:13:00,68.1,61.0,29.85,SE,136,3.0,4.0,78,0.00,,,0.00,LWC2 V0.39 B123,2013-09-27 10:13:00,
2013-09-27 04:18:00,68.0,61.2,29.85,ESE,118,3.0,3.0,79,0.00,,,0.00,LWC2 V0.39 B123,2013-09-27 10:18:00,
2013-09-27 04:23:00,67.9,61.1,29.85,ESE,114,2.0,5.0,79,0.00,,,0.00,LWC2 V0.39 B123,2013-09-27 10:23:00,
2013-09-27 04:28:00,67.8,61.0,29.85,SE,135,3.0,4.0,79,0.00,,,0.00,LWC2 V0.39 B123,2013-09-27 10:28:00,
2013-09-27 04:33:00,67.6,60.8,29.85,SE,124,2.0,3.0,79,0.00,,,0.00,LWC2 V0.39 B123,2013-09-27 10:33:00,
2013-09-27 04:38:00,67.6,61.2,29.85,SE,132,2.0,4.0,80,0.00,,,0.00,LWC2 V0.39 B123,2013-09-27 10:38:00,
2013-09-27 04:43:00,67.7,61.3,29.85,ESE,115,3.0,6.0,80,0.00,,,0.00,LWC2 V0.39 B123,2013-09-27 10:43:00,
2013-09-27 04:48:00,67.8,61.0,29.85,SE,136,2.0,6.0,79,0.00,,,0.00,LWC2 V0.39 B123,2013-09-27 10:48:00,
2013-09-27 04:53:00,68.0,61.2,29.86,South,177,3.0,4.0,79,0.00,,,0.00,LWC2 V0.39 B123,2013-09-27 10:53:00,
2013-09-27 04:58:00,68.0,61.2,29.86,SE,144,2.0,5.0,79,0.00,,,0.00,LWC2 V0.39 B123,2013-09-27 10:58:00,
2013-09-27 05:03:00,68.1,61.3,29.86,SE,124,3.0,6.0,79,0.00,,,0.00,LWC2 V0.39 B123,2013-09-27 11:03:00,
2013-09-27 05:08:00,68.0,61.6,29.86,SE,126,5.0,5.0,80,0.00,,,0.00,LWC2 V0.39 B123,2013-09-27 11:08:00,
2013-09-27 05:13:00,67.8,61.4,29.86,ESE,108,4.0,5.0,80,0.00,,,0.00,LWC2 V0.39 B123,2013-09-27 11:13:00,
2013-09-27 05:18:00,67.8,61.4,29.86,SSE,150,5.0,5.0,80,0.00,,,0.00,LWC2 V0.39 B123,2013-09-27 11:18:00,
2013-09-27 05:23:00,67.7,61.7,29.86,SSE,148,4.0,4.0,81,0.00,,,0.00,LWC2 V0.39 B123,2013-09-27 11:23:00,
2013-09-27 05:28:00,67.7,61.7,29.87,SSE,152,3.0,7.0,81,0.00,,,0.00,LWC2 V0.39 B123,2013-09-27 11:28:00,
2013-09-27 05:33:00,67.6,61.6,29.87,SE,135,4.0,6.0,81,0.00,,,0.00,LWC2 V0.39 B123,2013-09-27 11:33:00,
2013-09-27 05:38:00,67.5,61.5,29.87,ESE,119,5.0,7.0,81,0.00,,,0.00,LWC2 V0.39 B123,2013-09-27 11:38:00,
2013-09-27 05:43:00,67.5,61.5,29.87,ESE,115,5.0,6.0,81,0.00,,,0.00,LWC2 V0.39 B123,2013-09-27 11:43:00,
2013-09-27 05:48:00,67.4,61.4,29.87,SE,136,3.0,6.0,81,0.00,,,0.00,LWC2 V0.39 B123,2013-09-27 11:48:00,
2013-09-27 05:53:00,67.4,61.4,29.87,SE,129,2.0,5.0,81,0.00,,,0.00,LWC2 V0.39 B123,2013-09-27 11:53:00,
2013-09-27 05:58:00,67.3,61.3,29.87,SE,146,3.0,6.0,81,0.00,,,0.00,LWC2 V0.39 B123,2013-09-27 11:58:00,
2013-09-27 06:03:00,67.2,61.2,29.87,ESE,120,3.0,5.0,81,0.00,,,0.00,LWC2 V0.39 B123,2013-09-27 12:03:00,
2013-09-27 06:08:00,67.2,61.5,29.87,South,190,5.0,8.0,82,0.00,,,0.00,LWC2 V0.39 B123,2013-09-27 12:08:00,
2013-09-27 06:13:00,67.2,61.5,29.87,ESE,105,4.0,8.0,82,0.00,,,0.00,LWC2 V0.39 B123,2013-09-27 12:13:00,
2013-09-27 06:18:00,67.1,61.4,29.87,SSE,156,4.0,6.0,82,0.00,,,0.00,LWC2 V0.39 B123,2013-09-27 12:18:00,
2013-09-27 06:23:00,67.1,61.4,29.88,SE,135,4.0,5.0,82,0.00,,,0.00,LWC2 V0.39 B123,2013-09-27 12:23:00,
2013-09-27 06:28:00,67.2,61.5,29.88,ESE,123,3.0,5.0,82,0.00,,,0.00,LWC2 V0.39 B123,2013-09-27 12:28:00,
2013-09-27 06:33:00,67.3,61.6,29.88,ESE,123,4.0,5.0,82,0.00,,,0.00,LWC2 V0.39 B123,2013-09-27 12:33:00,
2013-09-27 06:38:00,67.4,61.7,29.88,ESE,111,3.0,7.0,82,0.00,,,0.00,LWC2 V0.39 B123,2013-09-27 12:38:00,
2013-09-27 06:43:00,67.5,61.5,29.88,SSE,152,6.0,7.0,81,0.00,,,0.00,LWC2 V0.39 B123,2013-09-27 12:43:00,
2013-09-27 06:48:00,67.6,61.6,29.88,NE,48,4.0,6.0,81,0.00,,,0.00,LWC2 V0.39 B123,2013-09-27 12:48:00,
2013-09-27 06:53:00,67.8,61.7,29.88,ESE,110,6.0,7.0,81,0.00,,,0.00,LWC2 V0.39 B123,2013-09-27 12:53:00,
2013-09-27 06:58:00,68.1,62.0,29.88,SSE,155,3.0,7.0,81,0.00,,,0.00,LWC2 V0.39 B123,2013-09-27 12:58:00,
2013-09-27 07:03:00,68.5,62.1,29.88,SE,125,6.0,7.0,80,0.00,,,0.00,LWC2 V0.39 B123,2013-09-27 13:03:00,
2013-09-27 07:08:00,68.8,62.4,29.88,SSE,152,4.0,8.0,80,0.00,,,0.00,LWC2 V0.39 B123,2013-09-27 13:08:00,
2013-09-27 07:13:00,69.1,62.3,29.89,SSE,166,4.0,6.0,79,0.00,,,0.00,LWC2 V0.39 B123,2013-09-27 13:13:00,
2013-09-27 07:18:00,69.5,62.7,29.89,ESE,115,4.0,6.0,79,0.00,,,0.00,LWC2 V0.39 B123,2013-09-27 13:18:00,
2013-09-27 07:23:00,69.8,62.6,29.89,ESE,121,3.0,6.0,78,0.00,,,0.00,LWC2 V0.39 B123,2013-09-27 13:23:00,
2013-09-27 07:28:00,70.1,62.5,29.89,ESE,110,5.0,10.0,77,0.00,,,0.00,LWC2 V0.39 B123,2013-09-27 13:28:00,
2013-09-27 07:33:00,70.4,62.8,29.89,SE,140,4.0,8.0,77,0.00,,,0.00,LWC2 V0.39 B123,2013-09-27 13:33:00,
2013-09-27 07:38:00,70.8,62.8,29.88,SE,124,3.0,6.0,76,0.00,,,0.00,LWC2 V0.39 B123,2013-09-27 13:38:00,
2013-09-27 07:43:00,71.0,63.0,29.89,South,169,5.0,11.0,76,0.00,,,0.00,LWC2 V0.39 B123,2013-09-27 13:43:00,
2013-09-27 07:48:00,71.4,63.0,29.89,SE,126,5.0,7.0,75,0.00,,,0.00,LWC2 V0.39 B123,2013-09-27 13:48:00,
2013-09-27 07:53:00,71.7,63.0,29.88,East,92,4.0,10.0,74,0.00,,,0.00,LWC2 V0.39 B123,2013-09-27 13:53:00,
2013-09-27 07:58:00,72.0,63.2,29.89,SE,132,5.0,8.0,74,0.00,,,0.00,LWC2 V0.39 B123,2013-09-27 13:58:00,
2013-09-27 08:03:00,72.4,63.6,29.89,SSW,197,6.0,10.0,74,0.00,,,0.00,LWC2 V0.39 B123,2013-09-27 14:03:00,
2013-09-27 08:08:00,72.8,63.6,29.89,SSE,154,6.0,8.0,73,0.00,,,0.00,LWC2 V0.39 B123,2013-09-27 14:08:00,
2013-09-27 08:13:00,73.2,64.0,29.88,ESE,122,4.0,9.0,73,0.00,,,0.00,LWC2 V0.39 B123,2013-09-27 14:13:00,
2013-09-27 08:18:00,73.7,64.1,29.89,SE,138,3.0,10.0,72,0.00,,,0.00,LWC2 V0.39 B123,2013-09-27 14:18:00,
2013-09-27 08:23:00,74.0,64.0,29.89,WSW,243,10.0,10.0,71,0.00,,,0.00,LWC2 V0.39 B123,2013-09-27 14:23:00,
2013-09-27 08:28:00,74.5,64.5,29.89,SSE,152,3.0,7.0,71,0.00,,,0.00,LWC2 V0.39 B123,2013-09-27 14:28:00,
2013-09-27 08:33:00,75.0,64.5,29.89,SSW,208,7.0,7.0,70,0.00,,,0.00,LWC2 V0.39 B123,2013-09-27 14:33:00,
2013-09-27 08:38:00,75.5,64.6,29.89,SE,137,5.0,10.0,69,0.00,,,0.00,LWC2 V0.39 B123,2013-09-27 14:38:00,
2013-09-27 08:43:00,75.9,65.0,29.89,South,188,4.0,12.0,69,0.00,,,0.00,LWC2 V0.39 B123,2013-09-27 14:43:00,
2013-09-27 08:48:00,76.4,65.0,29.89,SSE,162,4.0,7.0,68,0.00,,,0.00,LWC2 V0.39 B123,2013-09-27 14:48:00,
2013-09-27 08:53:00,76.7,65.3,29.89,SE,131,4.0,8.0,68,0.00,,,0.00,LWC2 V0.39 B123,2013-09-27 14:53:00,
2013-09-27 08:58:00,77.2,65.8,29.89,ESE,121,6.0,7.0,68,0.00,,,0.00,LWC2 V0.39 B123,2013-09-27 14:58:00,
2013-09-27 09:03:00,77.8,65.1,29.89,South,173,6.0,14.0,65,0.00,,,0.00,LWC2 V0.39 B123,2013-09-27 15:03:00,
2013-09-27 09:08:00,77.8,65.5,29.89,SSW,193,3.0,6.0,66,0.00,,,0.00,LWC2 V0.39 B123,2013-09-27 15:08:00,
2013-09-27 09:13:00,78.4,66.5,29.89,ESE,106,5.0,7.0,67,0.00,,,0.00,LWC2 V0.39 B123,2013-09-27 15:13:00,
2013-09-27 09:18:00,78.7,65.9,29.89,SE,131,5.0,8.0,65,0.00,,,0.00,LWC2 V0.39 B123,2013-09-27 15:18:00,
2013-09-27 09:23:00,78.9,66.1,29.89,SE,137,3.0,7.0,65,0.00,,,0.00,LWC2 V0.39 B123,2013-09-27 15:23:00,
2013-09-27 09:28:00,79.1,66.3,29.89,SE,135,4.0,6.0,65,0.00,,,0.00,LWC2 V0.39 B123,2013-09-27 15:28:00,
2013-09-27 09:33:00,79.6,66.3,29.89,SSE,160,3.0,6.0,64,0.00,,,0.00,LWC2 V0.39 B123,2013-09-27 15:33:00,
2013-09-27 09:38:00,80.1,66.8,29.89,South,171,4.0,8.0,64,0.00,,,0.00,LWC2 V0.39 B123,2013-09-27 15:38:00,
2013-09-27 09:43:00,80.5,67.2,29.89,ESE,121,3.0,9.0,64,0.00,,,0.00,LWC2 V0.39 B123,2013-09-27 15:43:00,
2013-09-27 09:48:00,80.8,66.5,29.89,SE,131,7.0,10.0,62,0.00,,,0.00,LWC2 V0.39 B123,2013-09-27 15:48:00,
2013-09-27 09:53:00,80.9,67.1,29.89,SE,125,7.0,8.0,63,0.00,,,0.00,LWC2 V0.39 B123,2013-09-27 15:53:00,
2013-09-27 09:58:00,81.0,66.7,29.89,SSW,205,5.0,7.0,62,0.00,,,0.00,LWC2 V0.39 B123,2013-09-27 15:58:00,
2013-09-27 10:03:00,81.3,67.0,29.89,SE,131,3.0,5.0,62,0.00,,,0.00,LWC2 V0.39 B123,2013-09-27 16:03:00,
2013-09-27 10:08:00,81.9,66.6,29.89,SE,136,6.0,8.0,60,0.00,,,0.00,LWC2 V0.39 B123,2013-09-27 16:08:00,
2013-09-27 10:13:00,82.1,66.3,29.89,SE,129,7.0,10.0,59,0.00,,,0.00,LWC2 V0.39 B123,2013-09-27 16:13:00,
2013-09-27 10:18:00,82.5,66.7,29.89,SSE,156,5.0,12.0,59,0.00,,,0.00,LWC2 V0.39 B123,2013-09-27 16:18:00,
2013-09-27 10:23:00,83.1,66.8,29.88,ESE,112,4.0,4.0,58,0.00,,,0.00,LWC2 V0.39 B123,2013-09-27 16:23:00,
2013-09-27 10:28:00,83.8,66.9,29.88,SE,139,6.0,8.0,57,0.00,,,0.00,LWC2 V0.39 B123,2013-09-27 16:28:00,
2013-09-27 10:33:00,84.1,66.7,29.88,SSW,199,4.0,6.0,56,0.00,,,0.00,LWC2 V0.39 B123,2013-09-27 16:33:00,
2013-09-27 10:38:00,84.0,66.6,29.88,SSE,163,8.0,9.0,56,0.00,,,0.00,LWC2 V0.39 B123,2013-09-27 16:38:00,
2013-09-27 10:43:00,83.9,67.5,29.88,SSE,148,4.0,8.0,58,0.00,,,0.00,LWC2 V0.39 B123,2013-09-27 16:43:00,
2013-09-27 10:48:00,84.3,66.3,29.88,South,177,5.0,10.0,55,0.00,,,0.00,LWC2 V0.39 B123,2013-09-27 16:48:00,
2013-09-27 10:53:00,84.6,66.1,29.87,SE,133,4.0,10.0,54,0.00,,,0.00,LWC2 V0.39 B123,2013-09-27 16:53:00,
2013-09-27 10:58:00,84.4,67.0,29.87,SSE,148,3.0,3.0,56,0.00,,,0.00,LWC2 V0.39 B123,2013-09-27 16:58:00,
2013-09-27 11:03:00,84.9,66.4,29.87,SSE,148,8.0,9.0,54,0.00,,,0.00,LWC2 V0.39 B123,2013-09-27 17:03:00,
2013-09-27 11:08:00,85.0,67.0,29.87,South,186,3.0,6.0,55,0.00,,,0.00,LWC2 V0.39 B123,2013-09-27 17:08:00,
2013-09-27 11:13:00,86.0,65.7,29.87,South,175,7.0,10.0,51,0.00,,,0.00,LWC2 V0.39 B123,2013-09-27 17:13:00,
2013-09-27 11:18:00,85.9,66.2,29.87,South,191,4.0,9.0,52,0.00,,,0.00,LWC2 V0.39 B123,2013-09-27 17:18:00,
2013-09-27 11:23:00,86.6,66.3,29.87,SSE,163,5.0,5.0,51,0.00,,,0.00,LWC2 V0.39 B123,2013-09-27 17:23:00,
2013-09-27 11:26:00,86.7,65.8,29.87,SW,218,6.0,8.0,50,0.00,,,0.00,LWC2 V0.39 B123,2013-09-27 17:26:00,
2013-09-27 11:31:00,86.9,66.0,29.86,WSW,243,3.0,6.0,50,0.00,,,0.00,LWC2 V0.39 B123,2013-09-27 17:31:00,
2013-09-27 11:36:00,86.9,64.8,29.86,SE,143,3.0,10.0,48,0.00,,,0.00,LWC2 V0.39 B123,2013-09-27 17:36:00,
2013-09-27 11:41:00,87.1,65.6,29.86,SE,135,3.0,8.0,49,0.00,,,0.00,LWC2 V0.39 B123,2013-09-27 17:41:00,
2013-09-27 11:46:00,87.4,64.7,29.86,SE,135,6.0,12.0,47,0.00,,,0.00,LWC2 V0.39 B123,2013-09-27 17:46:00,
2013-09-27 11:51:00,87.3,64.0,29.86,SSE,162,3.0,10.0,46,0.00,,,0.00,LWC2 V0.39 B123,2013-09-27 17:51:00,
2013-09-27 11:56:00,86.9,64.8,29.85,SW,225,5.0,7.0,48,0.00,,,0.00,LWC2 V0.39 B123,2013-09-27 17:56:00,
2013-09-27 12:01:00,87.5,65.4,29.85,South,188,5.0,8.0,48,0.00,,,0.00,LWC2 V0.39 B123,2013-09-27 18:01:00,
2013-09-27 12:06:00,87.2,65.7,29.85,ESE,122,3.0,9.0,49,0.00,,,0.00,LWC2 V0.39 B123,2013-09-27 18:06:00,
2013-09-27 12:11:00,87.6,64.8,29.84,SE,139,5.0,10.0,47,0.00,,,0.00,LWC2 V0.39 B123,2013-09-27 18:11:00,
2013-09-27 12:16:00,87.4,65.3,29.84,South,191,3.0,8.0,48,0.00,,,0.00,LWC2 V0.39 B123,2013-09-27 18:16:00,
2013-09-27 12:21:00,87.7,63.7,29.85,SSE,155,5.0,10.0,45,0.00,,,0.00,LWC2 V0.39 B123,2013-09-27 18:21:00,
2013-09-27 12:26:00,88.0,62.7,29.84,WSW,256,7.0,17.0,43,0.00,,,0.00,LWC2 V0.39 B123,2013-09-27 18:26:00,
2013-09-27 12:31:00,88.3,62.9,29.84,ESE,111,12.0,12.0,43,0.00,,,0.00,LWC2 V0.39 B123,2013-09-27 18:31:00,
2013-09-27 12:36:00,88.5,64.4,29.84,South,176,9.0,9.0,45,0.00,,,0.00,LWC2 V0.39 B123,2013-09-27 18:36:00,
2013-09-27 12:41:00,88.8,63.4,29.84,ESE,119,3.0,7.0,43,0.00,,,0.00,LWC2 V0.39 B123,2013-09-27 18:41:00,
2013-09-27 12:46:00,89.3,63.2,29.83,NNE,13,2.0,12.0,42,0.00,,,0.00,LWC2 V0.39 B123,2013-09-27 18:46:00,
2013-09-27 12:51:00,88.9,62.8,29.83,NNW,336,4.0,11.0,42,0.00,,,0.00,LWC2 V0.39 B123,2013-09-27 18:51:00,
2013-09-27 12:56:00,88.8,62.0,29.83,WSW,245,12.0,12.0,41,0.00,,,0.00,LWC2 V0.39 B123,2013-09-27 18:56:00,
2013-09-27 13:01:00,89.1,62.3,29.83,ESE,115,6.0,6.0,41,0.00,,,0.00,LWC2 V0.39 B123,2013-09-27 19:01:00,
2013-09-27 13:06:00,89.1,61.6,29.83,ESE,118,11.0,12.0,40,0.00,,,0.00,LWC2 V0.39 B123,2013-09-27 19:06:00,
2013-09-27 13:11:00,89.0,62.9,29.83,SE,138,6.0,9.0,42,0.00,,,0.00,LWC2 V0.39 B123,2013-09-27 19:11:00,
2013-09-27 13:16:00,89.0,62.9,29.82,SSE,167,3.0,7.0,42,0.00,,,0.00,LWC2 V0.39 B123,2013-09-27 19:16:00,
2013-09-27 13:21:00,89.0,63.6,29.82,SW,235,12.0,12.0,43,0.00,,,0.00,LWC2 V0.39 B123,2013-09-27 19:21:00,
2013-09-27 13:26:00,89.0,62.9,29.82,WNW,291,2.0,9.0,42,0.00,,,0.00,LWC2 V0.39 B123,2013-09-27 19:26:00,
2013-09-27 13:31:00,89.6,62.0,29.81,South,184,4.0,16.0,40,0.00,,,0.00,LWC2 V0.39 B123,2013-09-27 19:31:00,
2013-09-27 13:36:00,89.5,62.6,29.81,WSW,252,4.0,9.0,41,0.00,,,0.00,LWC2 V0.39 B123,2013-09-27 19:36:00,
2013-09-27 13:41:00,89.8,62.9,29.81,SW,221,3.0,7.0,41,0.00,,,0.00,LWC2 V0.39 B123,2013-09-27 19:41:00,
2013-09-27 13:46:00,89.9,63.0,29.81,SE,142,4.0,8.0,41,0.00,,,0.00,LWC2 V0.39 B123,2013-09-27 19:46:00,
2013-09-27 13:51:00,89.5,63.3,29.81,South,179,4.0,9.0,42,0.00,,,0.00,LWC2 V0.39 B123,2013-09-27 19:51:00,
2013-09-27 13:56:00,89.8,64.3,29.80,South,176,4.0,6.0,43,0.00,,,0.00,LWC2 V0.39 B123,2013-09-27 19:56:00,
2013-09-27 14:01:00,89.7,63.5,29.80,SSE,152,3.0,10.0,42,0.00,,,0.00,LWC2 V0.39 B123,2013-09-27 20:01:00,
2013-09-27 14:06:00,90.2,63.3,29.80,SSE,165,3.0,6.0,41,0.00,,,0.00,LWC2 V0.39 B123,2013-09-27 20:06:00,
2013-09-27 14:11:00,90.3,61.9,29.80,SSW,200,5.0,14.0,39,0.00,,,0.00,LWC2 V0.39 B123,2013-09-27 20:11:00,
2013-09-27 14:16:00,89.6,61.3,29.80,SSW,204,6.0,13.0,39,0.00,,,0.00,LWC2 V0.39 B123,2013-09-27 20:16:00,
2013-09-27 14:21:00,89.5,62.6,29.79,SE,143,3.0,10.0,41,0.00,,,0.00,LWC2 V0.39 B123,2013-09-27 20:21:00,
2013-09-27 14:26:00,89.6,61.3,29.78,SSW,193,5.0,12.0,39,0.00,,,0.00,LWC2 V0.39 B123,2013-09-27 20:26:00,
2013-09-27 14:31:00,89.7,62.1,29.79,SSW,194,9.0,13.0,40,0.00,,,0.00,LWC2 V0.39 B123,2013-09-27 20:31:00,
2013-09-27 14:36:00,89.9,61.6,29.79,SSW,197,6.0,12.0,39,0.00,,,0.00,LWC2 V0.39 B123,2013-09-27 20:36:00,
2013-09-27 14:41:00,90.0,61.7,29.79,South,179,9.0,14.0,39,0.00,,,0.00,LWC2 V0.39 B123,2013-09-27 20:41:00,
2013-09-27 14:46:00,89.8,60.8,29.79,South,176,8.0,12.0,38,0.00,,,0.00,LWC2 V0.39 B123,2013-09-27 20:46:00,
2013-09-27 14:51:00,89.8,61.5,29.79,SW,218,9.0,11.0,39,0.00,,,0.00,LWC2 V0.39 B123,2013-09-27 20:51:00,
2013-09-27 14:56:00,89.6,60.6,29.78,SE,133,5.0,9.0,38,0.00,,,0.00,LWC2 V0.39 B123,2013-09-27 20:56:00,
2013-09-27 15:01:00,89.9,60.8,29.78,SE,139,6.0,11.0,38,0.00,,,0.00,LWC2 V0.39 B123,2013-09-27 21:01:00,
2013-09-27 15:06:00,90.0,60.9,29.79,South,181,4.0,8.0,38,0.00,,,0.00,LWC2 V0.39 B123,2013-09-27 21:06:00,
2013-09-27 15:11:00,90.1,60.3,29.78,SSE,168,7.0,12.0,37,0.00,,,0.00,LWC2 V0.39 B123,2013-09-27 21:11:00,
2013-09-27 15:16:00,90.0,60.2,29.79,SSE,151,4.0,12.0,37,0.00,,,0.00,LWC2 V0.39 B123,2013-09-27 21:16:00,
2013-09-27 15:21:00,90.0,60.2,29.79,South,190,5.0,9.0,37,0.00,,,0.00,LWC2 V0.39 B123,2013-09-27 21:21:00,
2013-09-27 15:26:00,90.0,60.2,29.78,WSW,253,7.0,11.0,37,0.00,,,0.00,LWC2 V0.39 B123,2013-09-27 21:26:00,
2013-09-27 15:31:00,90.0,60.2,29.79,South,184,6.0,8.0,37,0.00,,,0.00,LWC2 V0.39 B123,2013-09-27 21:31:00,
2013-09-27 15:36:00,90.0,58.6,29.79,South,179,7.0,12.0,35,0.00,,,0.00,LWC2 V0.39 B123,2013-09-27 21:36:00,
2013-09-27 15:41:00,90.0,57.8,29.79,SSW,203,5.0,9.0,34,0.00,,,0.00,LWC2 V0.39 B123,2013-09-27 21:41:00,
2013-09-27 15:46:00,90.3,58.9,29.78,SE,136,3.0,6.0,35,0.00,,,0.00,LWC2 V0.39 B123,2013-09-27 21:46:00,
2013-09-27 15:51:00,90.5,58.3,29.78,South,186,7.0,10.0,34,0.00,,,0.00,LWC2 V0.39 B123,2013-09-27 21:51:00,
2013-09-27 15:56:00,90.2,58.0,29.78,SSE,159,4.0,11.0,34,0.00,,,0.00,LWC2 V0.39 B123,2013-09-27 21:56:00,
2013-09-27 16:01:00,90.1,58.7,29.78,WSW,245,8.0,10.0,35,0.00,,,0.00,LWC2 V0.39 B123,2013-09-27 22:01:00,
2013-09-27 16:06:00,90.0,59.4,29.78,NNE,18,4.0,7.0,36,0.00,,,0.00,LWC2 V0.39 B123,2013-09-27 22:06:00,
2013-09-27 16:11:00,90.0,59.4,29.78,WSW,249,7.0,11.0,36,0.00,,,0.00,LWC2 V0.39 B123,2013-09-27 22:11:00,
2013-09-27 16:16:00,90.1,59.5,29.78,NW,309,2.0,9.0,36,0.00,,,0.00,LWC2 V0.39 B123,2013-09-27 22:16:00,
2013-09-27 16:21:00,90.1,60.3,29.78,SSW,195,3.0,10.0,37,0.00,,,0.00,LWC2 V0.39 B123,2013-09-27 22:21:00,
2013-09-27 16:26:00,89.9,60.1,29.78,South,179,2.0,10.0,37,0.00,,,0.00,LWC2 V0.39 B123,2013-09-27 22:26:00,
2013-09-27 16:31:00,89.6,59.8,29.78,SE,138,3.0,7.0,37,0.00,,,0.00,LWC2 V0.39 B123,2013-09-27 22:31:00,
2013-09-27 16:36:00,89.5,59.7,29.78,SE,129,4.0,9.0,37,0.00,,,0.00,LWC2 V0.39 B123,2013-09-27 22:36:00,
2013-09-27 16:41:00,89.2,59.5,29.78,SSE,152,5.0,8.0,37,0.00,,,0.00,LWC2 V0.39 B123,2013-09-27 22:41:00,
2013-09-27 16:46:00,89.0,59.3,29.77,WSW,238,8.0,8.0,37,0.00,,,0.00,LWC2 V0.39 B123,2013-09-27 22:46:00,
2013-09-27 16:51:00,88.7,59.8,29.77,SE,128,4.0,8.0,38,0.00,,,0.00,LWC2 V0.39 B123,2013-09-27 22:51:00,
2013-09-27 16:56:00,88.5,60.3,29.77,SE,142,5.0,6.0,39,0.00,,,0.00,LWC2 V0.39 B123,2013-09-27 22:56:00,
2013-09-27 17:01:00,88.2,60.1,29.78,South,176,3.0,6.0,39,0.00,,,0.00,LWC2 V0.39 B123,2013-09-27 23:01:00,
2013-09-27 17:06:00,87.9,60.5,29.77,South,186,7.0,8.0,40,0.00,,,0.00,LWC2 V0.39 B123,2013-09-27 23:06:00,
2013-09-27 17:11:00,87.6,60.3,29.77,SW,236,5.0,8.0,40,0.00,,,0.00,LWC2 V0.39 B123,2013-09-27 23:11:00,
2013-09-27 17:16:00,87.4,60.8,29.77,SSE,152,3.0,7.0,41,0.00,,,0.00,LWC2 V0.39 B123,2013-09-27 23:16:00,
2013-09-27 17:21:00,87.0,60.4,29.77,ESE,121,4.0,5.0,41,0.00,,,0.00,LWC2 V0.39 B123,2013-09-27 23:21:00,
2013-09-27 17:26:00,86.7,60.8,29.77,SSW,201,4.0,9.0,42,0.00,,,0.00,LWC2 V0.39 B123,2013-09-27 23:26:00,
2013-09-27 17:31:00,86.4,61.2,29.77,SSW,193,3.0,6.0,43,0.00,,,0.00,LWC2 V0.39 B123,2013-09-27 23:31:00,
2013-09-27 17:37:00,86.0,60.9,29.77,South,174,3.0,8.0,43,0.00,,,0.00,LWC2 V0.39 B123,2013-09-27 23:37:00,
2013-09-27 17:42:00,85.8,61.3,29.77,SSW,202,4.0,6.0,44,0.00,,,0.00,LWC2 V0.39 B123,2013-09-27 23:42:00,
2013-09-27 17:47:00,85.4,61.0,29.77,ESE,103,3.0,7.0,44,0.00,,,0.00,LWC2 V0.39 B123,2013-09-27 23:47:00,
2013-09-27 17:52:00,85.2,61.4,29.77,SE,146,3.0,5.0,45,0.00,,,0.00,LWC2 V0.39 B123,2013-09-27 23:52:00,
2013-09-27 17:57:00,84.9,61.2,29.77,ESE,112,3.0,7.0,45,0.00,,,0.00,LWC2 V0.39 B123,2013-09-27 23:57:00,
2013-09-27 18:02:00,84.7,61.6,29.76,South,177,3.0,7.0,46,0.00,,,0.00,LWC2 V0.39 B123,2013-09-28 00:02:00,
2013-09-27 18:07:00,84.4,61.3,29.76,SSE,159,7.0,10.0,46,0.00,,,0.00,LWC2 V0.39 B123,2013-09-28 00:07:00,
2013-09-27 18:12:00,84.2,61.8,29.76,SE,143,3.0,5.0,47,0.00,,,0.00,LWC2 V0.39 B123,2013-09-28 00:12:00,
2013-09-27 18:17:00,83.9,61.5,29.76,SSE,155,3.0,8.0,47,0.00,,,0.00,LWC2 V0.39 B123,2013-09-28 00:17:00,
2013-09-27 18:22:00,83.7,61.9,29.76,SE,143,4.0,4.0,48,0.00,,,0.00,LWC2 V0.39 B123,2013-09-28 00:22:00,
2013-09-27 18:27:00,83.3,61.5,29.76,ESE,123,3.0,5.0,48,0.00,,,0.00,LWC2 V0.39 B123,2013-09-28 00:27:00,
2013-09-27 18:32:00,83.0,61.8,29.76,SE,136,4.0,5.0,49,0.00,,,0.00,LWC2 V0.39 B123,2013-09-28 00:32:00,
2013-09-27 18:37:00,82.8,61.7,29.76,South,190,3.0,4.0,49,0.00,,,0.00,LWC2 V0.39 B123,2013-09-28 00:37:00,
2013-09-27 18:42:00,82.5,62.0,29.76,South,169,3.0,5.0,50,0.00,,,0.00,LWC2 V0.39 B123,2013-09-28 00:42:00,
2013-09-27 18:47:00,82.3,61.8,29.76,South,186,5.0,5.0,50,0.00,,,0.00,LWC2 V0.39 B123,2013-09-28 00:47:00,
2013-09-27 18:52:00,82.1,62.1,29.77,SE,136,1.0,3.0,51,0.00,,,0.00,LWC2 V0.39 B123,2013-09-28 00:52:00,
2013-09-27 18:57:00,81.8,61.9,29.77,SE,132,3.0,5.0,51,0.00,,,0.00,LWC2 V0.39 B123,2013-09-28 00:57:00,
2013-09-27 19:02:00,81.6,61.7,29.77,South,174,2.0,5.0,51,0.00,,,0.00,LWC2 V0.39 B123,2013-09-28 01:02:00,
2013-09-27 19:07:00,81.3,62.0,29.77,SE,127,2.0,3.0,52,0.00,,,0.00,LWC2 V0.39 B123,2013-09-28 01:07:00,
2013-09-27 19:12:00,81.0,62.2,29.77,ESE,114,2.0,3.0,53,0.00,,,0.00,LWC2 V0.39 B123,2013-09-28 01:12:00,
2013-09-27 19:17:00,80.6,61.9,29.77,SE,134,3.0,4.0,53,0.00,,,0.00,LWC2 V0.39 B123,2013-09-28 01:17:00,
2013-09-27 19:22:00,80.4,62.2,29.77,SE,132,1.0,4.0,54,0.00,,,0.00,LWC2 V0.39 B123,2013-09-28 01:22:00,
2013-09-27 19:27:00,80.1,61.9,29.77,ESE,123,1.0,2.0,54,0.00,,,0.00,LWC2 V0.39 B123,2013-09-28 01:27:00,
2013-09-27 19:32:00,79.9,62.3,29.77,SE,127,2.0,3.0,55,0.00,,,0.00,LWC2 V0.39 B123,2013-09-28 01:32:00,
2013-09-27 19:37:00,79.8,62.2,29.77,SSW,198,3.0,3.0,55,0.00,,,0.00,LWC2 V0.39 B123,2013-09-28 01:37:00,
2013-09-27 19:42:00,79.7,62.1,29.78,SE,142,4.0,4.0,55,0.00,,,0.00,LWC2 V0.39 B123,2013-09-28 01:42:00,
2013-09-27 19:47:00,79.7,62.1,29.77,SE,134,1.0,4.0,55,0.00,,,0.00,LWC2 V0.39 B123,2013-09-28 01:47:00,
2013-09-27 19:52:00,79.6,62.0,29.78,SE,130,5.0,6.0,55,0.00,,,0.00,LWC2 V0.39 B123,2013-09-28 01:52:00,
2013-09-27 19:57:00,79.7,62.1,29.78,SE,143,3.0,6.0,55,0.00,,,0.00,LWC2 V0.39 B123,2013-09-28 01:57:00,
2013-09-27 20:02:00,79.9,62.3,29.78,East,99,5.0,5.0,55,0.00,,,0.00,LWC2 V0.39 B123,2013-09-28 02:02:00,
2013-09-27 20:07:00,80.0,62.4,29.78,South,172,2.0,5.0,55,0.00,,,0.00,LWC2 V0.39 B123,2013-09-28 02:07:00,
2013-09-27 20:12:00,80.1,62.4,29.78,ESE,111,2.0,9.0,55,0.00,,,0.00,LWC2 V0.39 B123,2013-09-28 02:12:00,
2013-09-27 20:17:00,80.3,62.6,29.78,SE,136,4.0,7.0,55,0.00,,,0.00,LWC2 V0.39 B123,2013-09-28 02:17:00,
2013-09-27 20:22:00,80.3,62.6,29.79,SE,136,3.0,6.0,55,0.00,,,0.00,LWC2 V0.39 B123,2013-09-28 02:22:00,
2013-09-27 20:27:00,80.3,62.6,29.79,SSE,152,3.0,6.0,55,0.00,,,0.00,LWC2 V0.39 B123,2013-09-28 02:27:00,
2013-09-27 20:32:00,80.4,62.7,29.79,WSW,249,4.0,9.0,55,0.00,,,0.00,LWC2 V0.39 B123,2013-09-28 02:32:00,
2013-09-27 20:37:00,80.6,62.4,29.79,SSE,160,2.0,9.0,54,0.00,,,0.00,LWC2 V0.39 B123,2013-09-28 02:37:00,
2013-09-27 20:42:00,80.6,62.4,29.80,South,188,9.0,9.0,54,0.00,,,0.00,LWC2 V0.39 B123,2013-09-28 02:42:00,
2013-09-27 20:47:00,80.6,62.9,29.80,SSE,160,4.0,6.0,55,0.00,,,0.00,LWC2 V0.39 B123,2013-09-28 02:47:00,
2013-09-27 20:52:00,80.7,62.5,29.80,ESE,108,6.0,10.0,54,0.00,,,0.00,LWC2 V0.39 B123,2013-09-28 02:52:00,
2013-09-27 20:57:00,80.8,62.6,29.80,SSE,153,3.0,8.0,54,0.00,,,0.00,LWC2 V0.39 B123,2013-09-28 02:57:00,
2013-09-27 21:02:00,80.8,63.1,29.80,South,190,5.0,11.0,55,0.00,,,0.00,LWC2 V0.39 B123,2013-09-28 03:02:00,
2013-09-27 21:07:00,80.7,63.0,29.80,SSW,193,6.0,10.0,55,0.00,,,0.00,LWC2 V0.39 B123,2013-09-28 03:07:00,
2013-09-27 21:12:00,80.5,62.8,29.80,SSW,212,7.0,10.0,55,0.00,,,0.00,LWC2 V0.39 B123,2013-09-28 03:12:00,
2013-09-27 21:17:00,80.4,62.7,29.80,SSE,162,2.0,10.0,55,0.00,,,0.00,LWC2 V0.39 B123,2013-09-28 03:17:00,
2013-09-27 21:22:00,80.2,63.1,29.80,SSE,148,9.0,9.0,56,0.00,,,0.00,LWC2 V0.39 B123,2013-09-28 03:22:00,
2013-09-27 21:27:00,80.1,63.0,29.80,South,175,6.0,9.0,56,0.00,,,0.00,LWC2 V0.39 B123,2013-09-28 03:27:00,
2013-09-27 21:32:00,80.0,62.9,29.80,SSW,197,7.0,8.0,56,0.00,,,0.00,LWC2 V0.39 B123,2013-09-28 03:32:00,
2013-09-27 21:37:00,79.7,63.1,29.80,SSE,153,4.0,8.0,57,0.00,,,0.00,LWC2 V0.39 B123,2013-09-28 03:37:00,
2013-09-27 21:42:00,79.4,62.8,29.80,SSE,163,8.0,8.0,57,0.00,,,0.00,LWC2 V0.39 B123,2013-09-28 03:42:00,
2013-09-27 21:47:00,79.2,63.1,29.80,SE,133,2.0,5.0,58,0.00,,,0.00,LWC2 V0.39 B123,2013-09-28 03:47:00,
2013-09-27 21:52:00,78.8,62.8,29.80,SSE,165,3.0,7.0,58,0.00,,,0.00,LWC2 V0.39 B123,2013-09-28 03:52:00,
2013-09-27 21:57:00,78.6,63.0,29.80,SSE,160,5.0,8.0,59,0.00,,,0.00,LWC2 V0.39 B123,2013-09-28 03:57:00,
2013-09-27 22:01:00,78.4,62.9,29.80,SSE,162,9.0,9.0,59,0.00,,,0.00,LWC2 V0.39 B123,2013-09-28 04:01:00,
2013-09-27 22:02:00,78.3,62.8,29.80,SW,236,6.0,9.0,59,0.00,,,0.00,LWC2 V0.39 B123,2013-09-28 04:02:00,
2013-09-27 22:06:00,78.3,63.2,29.80,SSE,155,4.0,11.0,60,0.00,,,0.00,LWC2 V0.39 B123,2013-09-28 04:06:00,
2013-09-27 22:11:00,78.2,63.2,29.79,WSW,242,5.0,9.0,60,0.00,,,0.00,LWC2 V0.39 B123,2013-09-28 04:11:00,
2013-09-27 22:16:00,78.0,63.0,29.79,SE,139,8.0,9.0,60,0.00,,,0.00,LWC2 V0.39 B123,2013-09-28 04:16:00,
2013-09-27 22:18:00,78.0,63.0,29.79,South,181,5.0,6.0,60,0.00,,,0.00,LWC2 V0.39 B123,2013-09-28 04:18:00,
2013-09-27 22:23:00,77.8,62.8,29.79,SE,142,4.0,11.0,60,0.00,,,0.00,LWC2 V0.39 B123,2013-09-28 04:23:00,
2013-09-27 22:28:00,77.8,63.3,29.79,South,169,7.0,9.0,61,0.00,,,0.00,LWC2 V0.39 B123,2013-09-28 04:28:00,
2013-09-27 22:33:00,77.7,63.2,29.79,South,188,4.0,6.0,61,0.00,,,0.00,LWC2 V0.39 B123,2013-09-28 04:33:00,
2013-09-27 22:34:00,77.6,63.1,29.79,SE,135,3.0,4.0,61,0.00,,,0.00,LWC2 V0.39 B123,2013-09-28 04:34:00,
2013-09-27 22:39:00,77.5,63.0,29.79,ESE,121,2.0,8.0,61,0.00,,,0.00,LWC2 V0.39 B123,2013-09-28 04:39:00,
2013-09-27 22:44:00,77.4,62.9,29.80,SSE,158,5.0,6.0,61,0.00,,,0.00,LWC2 V0.39 B123,2013-09-28 04:44:00,
2013-09-27 22:49:00,77.4,63.3,29.80,SE,139,4.0,12.0,62,0.00,,,0.00,LWC2 V0.39 B123,2013-09-28 04:49:00,
2013-09-27 22:54:00,77.2,63.2,29.79,SE,134,3.0,8.0,62,0.00,,,0.00,LWC2 V0.39 B123,2013-09-28 04:54:00,
2013-09-27 22:59:00,77.1,63.1,29.79,SSE,148,4.0,7.0,62,0.00,,,0.00,LWC2 V0.39 B123,2013-09-28 04:59:00,
2013-09-27 23:04:00,77.0,63.0,29.79,SSE,149,4.0,7.0,62,0.00,,,0.00,LWC2 V0.39 B123,2013-09-28 05:04:00,
2013-09-27 23:09:00,76.8,63.2,29.79,SSE,155,7.0,7.0,63,0.00,,,0.00,LWC2 V0.39 B123,2013-09-28 05:09:00,
2013-09-27 23:14:00,76.7,63.1,29.79,SSE,161,3.0,8.0,63,0.00,,,0.00,LWC2 V0.39 B123,2013-09-28 05:14:00,
2013-09-27 23:19:00,76.6,63.0,29.79,SE,126,3.0,9.0,63,0.00,,,0.00,LWC2 V0.39 B123,2013-09-28 05:19:00,
2013-09-27 23:24:00,76.5,62.9,29.79,SE,139,2.0,5.0,63,0.00,,,0.00,LWC2 V0.39 B123,2013-09-28 05:24:00,
2013-09-27 23:29:00,76.5,63.4,29.78,SE,136,3.0,6.0,64,0.00,,,0.00,LWC2 V0.39 B123,2013-09-28 05:29:00,
2013-09-27 23:34:00,76.6,63.0,29.78,SE,140,3.0,9.0,63,0.00,,,0.00,LWC2 V0.39 B123,2013-09-28 05:34:00,
2013-09-27 23:39:00,76.6,63.0,29.78,SSW,193,4.0,6.0,63,0.00,,,0.00,LWC2 V0.39 B123,2013-09-28 05:39:00,
2013-09-27 23:44:00,76.6,63.0,29.78,SE,146,3.0,10.0,63,0.00,,,0.00,LWC2 V0.39 B123,2013-09-28 05:44:00,
2013-09-27 23:49:00,76.6,63.5,29.78,SSE,164,3.0,7.0,64,0.00,,,0.00,LWC2 V0.39 B123,2013-09-28 05:49:00,
2013-09-27 23:54:00,76.5,63.4,29.78,SE,133,4.0,6.0,64,0.00,,,0.00,LWC2 V0.39 B123,2013-09-28 05:54:00,
2013-09-27 23:59:00,76.5,63.4,29.79,SE,140,2.0,11.0,64,0.00,,,0.00,LWC2 V0.39 B123,2013-09-28 05:59:00,